GW6494 Weather Reports


time (UTC)temp
C
wind
direction
speed
KPH
gust
KPH
rain 1hr
cm
rain 24hr
cm
rain mn
cm
humidity
%
barometer
mb
20260906140129 26 36 12.9 17.7 0.00 0.08 0.08 75 1016.8
20260906135626 26 31 4.8 6.4 0.00 0.08 0.08 77 1016.7
20260906135122 26 54 9.7 19.3 0.00 0.08 0.08 77 1017.0
20260906134618 26 44 4.8 8.0 0.00 0.08 0.08 78 1017.2
20260906134113 26 54 11.3 12.9 0.00 0.08 0.08 78 1017.1
20260906133609 26 37 4.8 16.1 0.00 0.08 0.08 79 1017.2
20260906133108 25 57 6.4 14.5 0.00 0.08 0.08 80 1017.3
20260906132603 26 59 6.4 14.5 0.00 0.08 0.08 79 1017.1
20260906132059 26 16 9.7 12.9 0.00 0.08 0.08 78 1017.2
20260906131554 26 52 0.0 4.8 0.00 0.08 0.08 79 1017.0
20260906131050 25 333 3.2 8.0 0.00 0.08 0.08 80 1017.0
20260906130549 25 9 1.6 8.0 0.00 0.08 0.08 81 1017.1
20260906130045 25 7 4.8 11.3 0.00 0.08 0.08 82 1017.0
20260906125543 25 5 3.2 4.8 0.00 0.08 0.08 82 1016.9
20260906125042 25 62 3.2 11.3 0.00 0.08 0.08 82 1016.7
20260906124538 25 5 3.2 6.4 0.00 0.08 0.08 82 1016.7
20260906124032 25 6 6.4 9.7 0.00 0.08 0.08 82 1016.8
20260906123532 25 312 4.8 6.4 0.00 0.08 0.08 83 1016.7
20260906123027 25 347 8.0 11.3 0.00 0.08 0.08 83 1016.5
20260906122526 25 6 3.2 6.4 0.00 0.08 0.08 83 1016.4
20260906122023 25 358 3.2 6.4 0.00 0.08 0.08 83 1016.4
20260906121519 24 45 8.0 9.7 0.00 0.08 0.08 84 1016.3
20260906121015 24 51 3.2 8.0 0.00 0.08 0.08 84 1016.3
20260906120515 24 35 3.2 8.0 0.00 0.08 0.08 85 1016.5
20260906120013 24 329 3.2 4.8 0.00 0.08 0.08 85 1016.3
20260906115508 24 355 6.4 8.0 0.00 0.08 0.08 85 1016.1
20260906115008 24 17 4.8 11.3 0.00 0.08 0.08 85 1016.2
20260906114502 24 44 6.4 6.4 0.00 0.08 0.08 85 1016.2
20260906113958 24 47 4.8 9.7 0.00 0.08 0.08 84 1016.3
20260906113456 24 53 4.8 4.8 0.00 0.08 0.08 85 1016.3
20260906112952 24 38 8.0 8.0 0.05 0.08 0.08 84 1016.2
20260906112447 24 13 4.8 4.8 0.00 0.05 0.05 85 1016.0
20260906111943 24 343 3.2 4.8 0.00 0.05 0.05 85 1015.9
20260906111442 24 327 0.0 4.8 0.00 0.05 0.05 85 1016.0
20260906110937 25 15 1.6 4.8 0.00 0.05 0.05 84 1016.1
20260906110433 25 55 0.0 11.3 0.00 0.05 0.05 84 1015.9
20260906105931 25 59 6.4 6.4 0.05 0.05 0.05 84 1015.9
20260906105427 25 33 3.2 3.2 0.05 0.05 0.05 83 1015.8
20260906104923 25 342 4.8 8.0 0.00 0.05 0.05 83 1015.9
20260906104422 25 355 3.2 4.8 0.00 0.05 0.05 83 1015.9
20260906103921 25 36 3.2 4.8 0.00 0.05 0.05 83 1015.9
20260906103419 25 32 4.8 6.4 0.00 0.05 0.05 82 1015.9
20260906102915 25 29 3.2 8.0 0.00 0.05 0.05 82 1015.9
20260906102414 25 27 6.4 11.3 0.00 0.05 0.05 82 1015.6
20260906101909 25 339 4.8 6.4 0.00 0.05 0.05 82 1015.7
20260906101405 25 42 8.0 8.0 0.00 0.05 0.05 82 1015.5
20260906100900 25 22 6.4 6.4 0.00 0.05 0.05 81 1015.5
20260906100359 25 24 3.2 8.0 0.00 0.05 0.05 81 1015.7
20260906095854 25 41 3.2 8.0 0.00 0.05 0.05 81 1015.5
20260906095350 25 337 3.2 4.8 0.00 0.05 0.05 81 1015.5
20260906094849 25 37 6.4 9.7 0.13 0.05 0.05 80 1015.4
20260906094344 26 28 4.8 6.4 0.13 0.05 0.05 81 1015.4
20260906093840 26 355 9.7 9.7 0.00 0.03 0.03 81 1015.6
20260906093336 26 36 4.8 8.0 0.00 0.03 0.03 81 1015.4
20260906092831 26 354 4.8 8.0 0.00 0.03 0.03 80 1015.3
20260906092331 26 350 3.2 9.7 0.00 0.03 0.03 80 1015.2
20260906091826 26 40 9.7 9.7 0.00 0.03 0.03 80 1015.0
20260906091323 26 359 3.2 4.8 0.00 0.03 0.03 79 1015.2
20260906090819 26 345 4.8 11.3 0.00 0.03 0.03 79 1015.1
20260906090318 26 21 8.0 11.3 0.00 0.03 0.03 79 1014.9
20260906085818 26 12 3.2 4.8 0.00 0.03 0.03 79 1015.1
20260906085317 26 11 3.2 8.0 0.00 0.03 0.03 78 1014.9
20260906084813 26 73 3.2 16.1 0.00 0.03 0.03 78 1015.0
20260906084312 26 60 6.4 11.3 0.00 0.03 0.03 78 1014.9
20260906083807 26 22 4.8 11.3 0.00 0.03 0.03 79 1014.9
20260906083303 26 34 14.5 16.1 0.00 0.03 0.03 80 1014.8
20260906082757 27 354 3.2 8.0 0.00 0.03 0.03 81 1014.9
20260906082252 27 36 6.4 11.3 0.00 0.03 0.03 81 1015.0
20260906081748 27 1 8.0 9.7 0.00 0.03 0.03 81 1014.8
20260906081243 27 61 11.3 16.1 0.05 0.03 0.03 81 1014.9
20260906080739 27 38 4.8 14.5 0.05 0.03 0.03 81 1014.9
20260906080236 27 12 4.8 11.3 0.00 0.00 0.00 81 1014.8
20260906075735 27 41 6.4 9.7 0.00 0.00 0.00 81 1014.8
20260906075235 27 356 3.2 9.7 0.00 0.00 0.00 81 1014.7
20260906074731 27 10 4.8 6.4 0.00 0.00 0.00 81 1014.7
20260906074230 27 44 6.4 6.4 0.00 0.00 0.00 81 1014.8
20260906073730 27 60 6.4 6.4 0.05 0.00 0.00 80 1014.7
20260906073225 27 38 3.2 4.8 0.05 0.00 0.00 80 1014.7
20260906072720 27 20 6.4 8.0 0.00 0.00 0.00 80 1014.7
20260906072216 27 33 4.8 9.7 0.00 0.00 0.00 79 1014.5
20260906071712 27 40 8.0 12.9 0.00 0.00 0.00 79 1014.7
20260906071212 28 56 6.4 9.7 0.00 0.00 0.00 78 1014.8
20260906070708 28 54 6.4 8.0 0.00 0.00 0.00 78 1014.7
20260906070204 28 23 3.2 9.7 0.00 0.00 0.00 77 1014.7
20260906065703 28 66 6.4 6.4 0.00 0.00 0.00 77 1014.9
20260906065159 28 24 4.8 8.0 0.00 0.00 0.00 76 1014.9
20260906064654 28 344 3.2 8.0 0.00 0.00 0.00 76 1014.8
20260906064149 28 341 1.6 3.2 0.00 0.00 0.00 76 1015.0
20260906063645 28 61 3.2 4.8 0.00 0.00 0.00 75 1014.8
20260906063140 28 39 4.8 9.7 0.00 0.00 0.00 75 1014.9
20260906062636 28 42 3.2 12.9 0.00 0.00 0.00 75 1015.0
20260906062135 28 19 1.6 9.7 0.00 0.00 0.00 75 1015.0
20260906061631 28 33 4.8 6.4 0.00 0.00 0.00 75 1014.8
20260906061131 28 17 3.2 6.4 0.00 0.00 0.00 76 1015.0
20260906060627 28 13 3.2 4.8 0.00 0.00 0.00 76 1015.0
20260906060125 28 33 3.2 3.2 0.00 0.00 0.00 76 1015.1
20260906055620 28 357 3.2 3.2 0.00 0.00 0.00 75 1014.8
20260906055115 28 355 3.2 3.2 0.00 0.00 0.00 76 1015.1
20260906054610 28 36 3.2 4.8 0.00 0.00 0.00 75 1014.9
20260906054105 28 8 3.2 4.8 0.00 0.00 0.00 76 1015.0
20260906053602 28 346 3.2 3.2 0.00 0.00 0.00 76 1014.9
20260906053057 28 22 4.8 6.4 0.00 0.00 0.00 74 1014.7
20260906052552 28 14 3.2 4.8 0.00 0.00 0.00 75 1014.9
20260906052049 28 357 1.6 4.8 0.00 0.00 0.00 75 1014.8
20260906051545 29 359 1.6 4.8 0.00 0.00 0.00 73 1014.7
20260906051040 29 56 1.6 3.2 0.00 0.00 0.00 71 1014.8
20260906050535 29 359 1.6 4.8 0.00 0.00 0.00 71 1014.7
20260906050030 29 37 3.2 4.8 0.00 0.05 0.05 69 1014.7
20260906045528 29 51 3.2 4.8 0.00 0.05 0.05 69 1014.7
20260906045024 29 15 3.2 4.8 0.00 0.05 0.05 70 1014.6
20260906044520 29 22 0.0 3.2 0.00 0.05 0.05 71 1014.7
20260906044015 29 0 3.2 3.2 0.00 0.05 0.05 72 1014.5
20260906043510 29 345 3.2 4.8 0.00 0.05 0.05 71 1014.6
20260906043007 29 28 4.8 6.4 0.00 0.05 0.05 71 1014.7
20260906042505 29 6 0.0 6.4 0.00 0.05 0.05 70 1014.5
20260906042005 29 337 1.6 6.4 0.00 0.05 0.05 69 1014.5
20260906041502 29 352 1.6 4.8 0.00 0.05 0.05 71 1014.4
20260906041001 29 26 4.8 4.8 0.00 0.05 0.05 71 1014.5
20260906040456 29 39 4.8 4.8 0.00 0.05 0.05 68 1014.5
20260906035951 29 21 1.6 6.4 0.00 0.05 0.05 70 1014.4
20260906035446 28 356 1.6 3.2 0.00 0.05 0.05 71 1014.4
20260906034937 28 2 1.6 4.8 0.00 0.05 0.05 72 1014.3
20260906034437 28 8 1.6 8.0 0.00 0.05 0.05 71 1014.2
20260906033932 28 318 3.2 3.2 0.00 0.05 0.05 73 1014.1
20260906033432 28 342 1.6 3.2 0.00 0.05 0.05 71 1014.2
20260906032928 28 11 0.0 3.2 0.00 0.05 0.05 72 1014.2
20260906032425 28 6 0.0 3.2 0.00 0.05 0.05 70 1014.3
20260906031924 28 10 0.0 3.2 0.00 0.05 0.05 69 1014.2
20260906031420 28 355 1.6 3.2 0.00 0.05 0.05 70 1014.0
20260906030915 29 345 0.0 1.6 0.00 0.05 0.05 69 1014.1
20260906030410 29 321 1.6 3.2 0.00 0.05 0.05 70 1014.0
20260906025904 29 30 0.0 3.2 0.00 0.05 0.05 68 1013.9
20260906025359 29 9 3.2 3.2 0.00 0.05 0.05 70 1013.9
20260906024857 28 31 0.0 4.8 0.00 0.05 0.05 72 1013.8
20260906024357 28 348 0.0 0.0 0.00 0.05 0.05 71 1013.6
20260906023852 28 12 1.6 1.6 0.00 0.05 0.05 74 1013.7
20260906023348 29 328 0.0 1.6 0.00 0.05 0.05 72 1013.7
20260906022848 29 315 0.0 1.6 0.00 0.05 0.05 73 1013.5
20260906022343 29 297 0.0 1.6 0.00 0.05 0.05 74 1013.4
20260906021839 30 312 0.0 1.6 0.00 0.05 0.05 72 1013.5
20260906021338 30 346 0.0 1.6 0.00 0.05 0.05 71 1013.2
20260906020833 30 15 0.0 1.6 0.00 0.05 0.05 67 1013.4
20260906020333 30 311 0.0 1.6 0.00 0.05 0.05 66 1013.1
20260906015828 31 335 0.0 3.2 0.00 0.05 0.05 64 1013.1
20260906015327 31 319 0.0 3.2 0.00 0.05 0.05 61 1013.2
20260906014826 31 317 1.6 3.2 0.00 0.05 0.05 57 1013.0
20260906014322 32 49 4.8 4.8 0.00 0.05 0.05 55 1012.9
20260906013818 32 37 3.2 6.4 0.00 0.05 0.05 55 1012.9
20260906013313 32 20 1.6 8.0 0.00 0.05 0.05 55 1012.8
20260906012808 32 0 0.0 4.8 0.00 0.05 0.05 55 1013.1
20260906012306 32 319 0.0 3.2 0.00 0.05 0.05 55 1012.8
20260906011758 32 321 1.6 3.2 0.00 0.05 0.05 54 1012.9
20260906011258 32 22 3.2 4.8 0.00 0.05 0.05 53 1012.9
20260906010754 33 344 1.6 4.8 0.00 0.05 0.05 52 1012.8
20260906010250 33 57 1.6 6.4 0.00 0.05 0.05 52 1012.7
20260906005745 33 69 3.2 6.4 0.00 0.05 0.05 51 1012.5
20260906005244 33 48 4.8 8.0 0.00 0.05 0.05 50 1012.4
20260906004743 33 17 3.2 9.7 0.00 0.05 0.05 50 1012.5
20260906004239 34 18 3.2 12.9 0.00 0.05 0.05 49 1012.4
20260906003739 34 44 4.8 11.3 0.00 0.05 0.05 48 1012.6
20260906003234 35 40 6.4 14.5 0.00 0.05 0.05 47 1012.4
20260906002734 35 66 6.4 12.9 0.00 0.05 0.05 47 1012.5
20260906002234 35 344 4.8 9.7 0.00 0.05 0.05 46 1012.3
20260906001730 35 20 4.8 6.4 0.00 0.05 0.05 46 1012.5
20260906001225 36 29 0.0 3.2 0.00 0.05 0.05 48 1012.4
20260906000720 36 0 1.6 4.8 0.00 0.05 0.05 47 1012.3
20260906000215 36 324 0.0 4.8 0.00 0.05 0.05 46 1012.4
20260905235715 36 325 3.2 4.8 0.00 0.05 0.05 47 1012.2
20260905235210 36 295 4.8 6.4 0.00 0.05 0.05 47 1012.3
20260905234705 36 328 3.2 6.4 0.00 0.05 0.05 46 1012.2
20260905234200 36 257 3.2 8.0 0.00 0.05 0.05 46 1012.4
20260905233656 36 260 8.0 8.0 0.00 0.05 0.05 46 1012.3
20260905233155 36 262 8.0 9.7 0.00 0.05 0.05 46 1012.6
20260905232650 36 258 6.4 8.0 0.00 0.05 0.05 46 1012.5
20260905232146 36 264 3.2 8.0 0.00 0.05 0.05 47 1012.5
20260905231641 36 306 3.2 6.4 0.00 0.05 0.05 47 1012.5
20260905231137 36 325 3.2 6.4 0.00 0.05 0.05 46 1012.4
20260905230633 37 291 9.7 9.7 0.00 0.05 0.05 45 1012.6
20260905230131 37 274 6.4 12.9 0.00 0.05 0.05 43 1012.6
20260905225630 37 311 4.8 8.0 0.00 0.05 0.05 43 1012.5
20260905225125 37 295 6.4 11.3 0.00 0.05 0.05 43 1012.5
20260905224625 37 299 4.8 4.8 0.00 0.05 0.05 44 1012.6
20260905224125 37 303 9.7 14.5 0.00 0.05 0.05 42 1012.3
20260905223622 37 305 4.8 11.3 0.00 0.05 0.05 43 1012.4
20260905223118 37 287 6.4 6.4 0.00 0.05 0.05 43 1012.5
20260905222618 37 314 6.4 8.0 0.00 0.05 0.05 41 1012.3
20260905222113 37 288 8.0 8.0 0.00 0.05 0.05 40 1012.4
20260905221609 36 250 4.8 8.0 0.00 0.05 0.05 41 1012.6
20260905221106 37 266 9.7 11.3 0.00 0.05 0.05 40 1012.6
20260905220601 37 304 9.7 19.3 0.00 0.05 0.05 39 1012.6
20260905220057 37 337 9.7 14.5 0.00 0.05 0.05 39 1012.6
20260905215556 37 265 8.0 14.5 0.00 0.05 0.05 38 1012.7
20260905215052 37 322 8.0 16.1 0.00 0.05 0.05 36 1012.5
20260905214549 37 340 3.2 6.4 0.00 0.05 0.05 39 1012.5
20260905214049 37 266 6.4 8.0 0.00 0.05 0.05 38 1012.5
20260905213544 37 261 8.0 9.7 0.00 0.05 0.05 39 1012.6
20260905213040 37 267 6.4 8.0 0.00 0.05 0.05 41 1012.5
20260905212539 36 262 4.8 12.9 0.00 0.05 0.05 43 1012.5
20260905212039 36 242 4.8 11.3 0.00 0.05 0.05 45 1012.6
20260905211534 36 266 12.9 19.3 0.00 0.05 0.05 44 1012.6
20260905211030 36 311 6.4 9.7 0.00 0.05 0.05 44 1012.6
20260905210526 36 263 11.3 17.7 0.00 0.05 0.05 44 1012.7
20260905210025 36 288 6.4 14.5 0.00 0.05 0.05 44 1012.7
20260905205520 36 281 22.5 32.2 0.00 0.05 0.05 43 1012.7
20260905205019 37 311 9.7 9.7 0.00 0.05 0.05 39 1012.7
20260905204514 37 281 3.2 9.7 0.00 0.05 0.05 38 1012.8
20260905204009 37 276 8.0 9.7 0.00 0.05 0.05 37 1012.8
20260905203504 38 315 16.1 20.9 0.00 0.05 0.05 37 1012.8
20260905202959 38 299 14.5 22.5 0.00 0.05 0.05 36 1012.8
20260905202454 38 327 8.0 20.9 0.00 0.05 0.05 36 1012.9
20260905201949 38 265 11.3 17.7 0.00 0.05 0.05 35 1012.7
20260905201444 38 260 6.4 9.7 0.00 0.05 0.05 34 1012.8
20260905200944 38 267 6.4 9.7 0.00 0.05 0.05 35 1012.9
20260905200440 38 266 6.4 17.7 0.00 0.05 0.05 35 1013.1
20260905195938 38 275 12.9 20.9 0.00 0.05 0.05 35 1013.1
20260905195433 38 292 3.2 11.3 0.00 0.05 0.05 37 1013.1
20260905194929 38 292 8.0 8.0 0.00 0.05 0.05 36 1013.1
20260905194429 37 324 9.7 11.3 0.00 0.05 0.05 38 1013.1
20260905193928 38 263 9.7 16.1 0.00 0.05 0.05 37 1013.4
20260905193423 38 269 9.7 16.1 0.00 0.05 0.05 39 1013.4
20260905192918 38 249 8.0 17.7 0.00 0.05 0.05 38 1013.4
20260905192414 38 261 11.3 16.1 0.00 0.05 0.05 38 1013.5
20260905191914 38 247 4.8 14.5 0.00 0.05 0.05 38 1013.5
20260905191413 37 315 11.3 19.3 0.00 0.05 0.05 39 1013.7
20260905190908 38 344 4.8 20.9 0.00 0.05 0.05 39 1013.8
20260905190406 38 347 11.3 20.9 0.00 0.05 0.05 38 1013.7
20260905185905 37 244 14.5 14.5 0.00 0.05 0.05 38 1013.6
20260905185400 37 293 9.7 20.9 0.00 0.05 0.05 38 1013.9
20260905184859 37 287 12.9 19.3 0.00 0.05 0.05 39 1013.9
20260905184358 37 314 6.4 24.1 0.00 0.05 0.05 39 1013.8
20260905183856 37 268 8.0 17.7 0.00 0.05 0.05 39 1013.8
20260905183352 37 265 8.0 16.1 0.00 0.05 0.05 39 1014.0
20260905182847 37 275 12.9 20.9 0.00 0.05 0.05 41 1014.1
20260905182347 37 0 4.8 17.7 0.00 0.05 0.05 41 1014.0
20260905181842 37 285 6.4 12.9 0.00 0.05 0.05 41 1014.1
20260905181342 37 309 14.5 16.1 0.00 0.05 0.05 42 1014.3
20260905180841 37 295 8.0 11.3 0.00 0.05 0.05 44 1014.3
20260905180336 37 260 8.0 14.5 0.00 0.05 0.05 43 1014.4
20260905175832 37 299 8.0 17.7 0.00 0.05 0.05 43 1014.4
20260905175331 37 290 6.4 16.1 0.00 0.05 0.05 43 1014.4
20260905174827 37 291 4.8 14.5 0.00 0.05 0.05 42 1014.3
20260905174323 36 244 4.8 9.7 0.00 0.05 0.05 44 1014.4
20260905173818 36 349 9.7 14.5 0.00 0.05 0.05 45 1014.5
20260905173314 36 273 9.7 14.5 0.00 0.05 0.05 45 1014.7
20260905172814 36 293 8.0 11.3 0.00 0.05 0.05 46 1014.6
20260905172312 36 309 9.7 22.5 0.00 0.05 0.05 46 1014.6
20260905171808 36 297 16.1 16.1 0.00 0.05 0.05 45 1014.9
20260905171305 35 249 6.4 12.9 0.00 0.05 0.05 48 1014.7
20260905170801 35 254 6.4 16.1 0.00 0.05 0.05 49 1014.8
20260905170256 35 299 1.6 12.9 0.00 0.05 0.05 48 1014.8
20260905165755 35 298 9.7 11.3 0.00 0.05 0.05 48 1015.0
20260905165251 35 285 8.0 11.3 0.00 0.05 0.05 48 1015.1
20260905164746 35 299 4.8 16.1 0.00 0.05 0.05 49 1015.2
20260905164246 35 303 11.3 17.7 0.00 0.05 0.05 49 1015.4
20260905163741 35 300 11.3 16.1 0.00 0.05 0.05 49 1015.3
20260905163238 35 318 9.7 12.9 0.00 0.05 0.05 50 1015.3
20260905162734 35 293 11.3 14.5 0.00 0.05 0.05 51 1015.6
20260905162233 35 271 3.2 11.3 0.00 0.05 0.05 51 1015.4
20260905161728 34 253 9.7 12.9 0.00 0.05 0.05 51 1015.4
20260905161226 34 279 8.0 14.5 0.00 0.05 0.05 52 1015.4
20260905160725 34 333 9.7 11.3 0.00 0.05 0.05 53 1015.4
20260905160220 33 335 14.5 16.1 0.00 0.05 0.05 53 1015.5
20260905155720 33 328 6.4 11.3 0.00 0.05 0.05 53 1015.3
20260905155219 33 338 6.4 9.7 0.00 0.05 0.05 54 1015.4
20260905154713 33 337 8.0 9.7 0.00 0.05 0.05 54 1015.6
20260905154209 33 285 6.4 14.5 0.00 0.05 0.05 54 1015.5
20260905153704 33 308 9.7 16.1 0.00 0.05 0.05 54 1015.5
20260905153200 32 278 11.3 17.7 0.00 0.05 0.05 55 1015.6
20260905152654 33 327 16.1 19.3 0.00 0.05 0.05 55 1015.4
20260905152149 32 336 11.3 16.1 0.00 0.05 0.05 55 1015.7
20260905151644 32 272 9.7 12.9 0.00 0.05 0.05 55 1015.6
20260905151139 32 315 12.9 14.5 0.00 0.05 0.05 56 1015.5
20260905150635 32 334 9.7 12.9 0.00 0.05 0.05 57 1015.6
20260905150133 32 329 16.1 17.7 0.00 0.05 0.05 55 1015.4
20260905145631 32 308 6.4 8.0 0.00 0.05 0.05 57 1015.4
20260905145131 32 269 3.2 6.4 0.00 0.05 0.05 56 1015.6
20260905144626 32 278 8.0 9.7 0.00 0.05 0.05 57 1015.6
20260905144125 32 288 6.4 11.3 0.00 0.05 0.05 58 1015.3
20260905143620 31 239 9.7 17.7 0.00 0.05 0.05 57 1015.6
20260905143114 31 263 9.7 17.7 0.00 0.05 0.05 57 1015.4
20260905142613 31 225 8.0 12.9 0.00 0.05 0.05 58 1015.6
20260905142113 31 253 11.3 19.3 0.00 0.05 0.05 58 1015.4
20260905141613 31 296 4.8 8.0 0.00 0.05 0.05 61 1015.4
20260905141110 31 317 6.4 8.0 0.00 0.05 0.05 62 1015.5
20260905140610 31 269 8.0 11.3 0.00 0.05 0.05 62 1015.5